EIN91W EGLL-EIKN

Flight info

Callsign EIN91W
Flight time 1h 4m
Altitude 38000
Route ULTIB T420 TNT UL28 PENIL M144 BAGSO DCT EDONO EDONO1B
Aircraft A20N/M-SDE3FGHIRWY/LB1

Departure

Time 2026-04-25 22:05
Airport London Heathrow Airport (EGLL)

Arrival

Time 2026-04-25 23:09
Airport Ireland West Airport Knock (EIKN)
Time Latitude Longitude Altitude Speed Heading
2026-04-25 21:28 51.46815 -0.44917 98 ft 0 kts 356°
2026-04-25 21:52 51.46811 -0.44916 98 ft 2 kts 356°
2026-04-25 21:52 51.46795 -0.44912 98 ft 3 kts 339°
2026-04-25 21:53 51.46780 -0.44902 98 ft 2 kts 338°
2026-04-25 21:53 51.46764 -0.44890 98 ft 3 kts 326°
2026-04-25 21:53 51.46750 -0.44867 98 ft 3 kts 301°
2026-04-25 21:53 51.46745 -0.44853 98 ft 0 kts 290°
2026-04-25 21:55 51.46745 -0.44854 98 ft 0 kts 290°
2026-04-25 21:55 51.46747 -0.44902 98 ft 8 kts 270°
2026-04-25 21:55 51.46747 -0.44996 98 ft 11 kts 269°
2026-04-25 21:56 51.46693 -0.45077 98 ft 12 kts 195°
2026-04-25 21:56 51.46659 -0.45142 98 ft 12 kts 263°
2026-04-25 21:56 51.46657 -0.45321 98 ft 13 kts 269°
2026-04-25 21:56 51.46656 -0.45508 98 ft 21 kts 269°
2026-04-25 21:57 51.46656 -0.45754 98 ft 22 kts 270°
2026-04-25 21:57 51.46655 -0.45999 98 ft 22 kts 269°
2026-04-25 21:57 51.46654 -0.46237 98 ft 21 kts 269°
2026-04-25 21:57 51.46653 -0.46441 98 ft 13 kts 270°
2026-04-25 21:58 51.46653 -0.46556 98 ft 8 kts 270°
2026-04-25 21:58 51.46653 -0.46613 98 ft 5 kts 270°
2026-04-25 21:58 51.46653 -0.46717 98 ft 19 kts 269°
2026-04-25 21:58 51.46652 -0.46938 98 ft 20 kts 269°
2026-04-25 21:59 51.46651 -0.47156 98 ft 20 kts 270°
2026-04-25 21:59 51.46650 -0.47397 98 ft 22 kts 270°
2026-04-25 21:59 51.46649 -0.47641 98 ft 22 kts 269°
2026-04-25 22:00 51.46648 -0.48000 98 ft 7 kts 270°
2026-04-25 22:00 51.46648 -0.48033 98 ft 0 kts 270°
2026-04-25 22:00 51.46648 -0.48046 98 ft 6 kts 270°
2026-04-25 22:00 51.46648 -0.48194 98 ft 20 kts 270°
2026-04-25 22:01 51.46647 -0.48419 98 ft 20 kts 269°
2026-04-25 22:01 51.46646 -0.48636 98 ft 15 kts 269°
2026-04-25 22:01 51.46629 -0.48744 98 ft 7 kts 219°
2026-04-25 22:01 51.46606 -0.48761 98 ft 4 kts 200°
2026-04-25 22:02 51.46595 -0.48768 98 ft 0 kts 199°
2026-04-25 22:02 51.46594 -0.48768 98 ft 0 kts 199°
2026-04-25 22:04 51.46584 -0.48773 98 ft 5 kts 199°
2026-04-25 22:04 51.46526 -0.48790 98 ft 10 kts 168°
2026-04-25 22:04 51.46478 -0.48720 98 ft 10 kts 111°
2026-04-25 22:04 51.46472 -0.48581 98 ft 28 kts 91°
2026-04-25 22:05 51.46475 -0.47851 98 ft 102 kts 90°
2026-04-25 22:05 51.46479 -0.46361 100 ft 162 kts 91°
2026-04-25 22:05 51.46487 -0.44471 690 ft 169 kts 91°
2026-04-25 22:05 51.46556 -0.42599 1639 ft 168 kts 84°
2026-04-25 22:06 51.46870 -0.40684 2170 ft 193 kts 67°
2026-04-25 22:06 51.47644 -0.38781 2737 ft 211 kts 52°
2026-04-25 22:06 51.48600 -0.36909 3541 ft 222 kts 51°
2026-04-25 22:06 51.49623 -0.34965 4462 ft 228 kts 50°
2026-04-25 22:07 51.50658 -0.33014 5394 ft 233 kts 50°
2026-04-25 22:07 51.51360 -0.31695 5759 ft 235 kts 50°
2026-04-25 22:07 51.52455 -0.28670 5971 ft 237 kts 68°
2026-04-25 22:07 51.53030 -0.26192 5994 ft 237 kts 69°
2026-04-25 22:08 51.53588 -0.23710 5999 ft 236 kts 69°
2026-04-25 22:08 51.54200 -0.21272 5995 ft 236 kts 60°
2026-04-25 22:08 51.55296 -0.19372 5997 ft 234 kts 31°
2026-04-25 22:08 51.56842 -0.18708 6001 ft 234 kts 358°
2026-04-25 22:09 51.58363 -0.19569 6011 ft 236 kts 327°
2026-04-25 22:09 51.59668 -0.21159 6006 ft 236 kts 322°
2026-04-25 22:09 51.60953 -0.22784 6002 ft 235 kts 324°
2026-04-25 22:09 51.62363 -0.24341 6007 ft 256 kts 328°
2026-04-25 22:10 51.63885 -0.25840 6004 ft 264 kts 329°
2026-04-25 22:10 51.65483 -0.27379 6009 ft 266 kts 330°
2026-04-25 22:10 51.67083 -0.28921 6798 ft 270 kts 330°
2026-04-25 22:10 51.68700 -0.30475 7879 ft 273 kts 329°
2026-04-25 22:11 51.70344 -0.32056 8916 ft 278 kts 329°
2026-04-25 22:11 51.72013 -0.33662 9913 ft 282 kts 329°
2026-04-25 22:11 51.73718 -0.35302 10735 ft 294 kts 329°
2026-04-25 22:11 51.75558 -0.37076 11043 ft 322 kts 329°
2026-04-25 22:12 51.77521 -0.39007 11630 ft 338 kts 326°
2026-04-25 22:12 51.79477 -0.41201 12392 ft 348 kts 324°
2026-04-25 22:12 51.81461 -0.43495 13227 ft 354 kts 324°
2026-04-25 22:12 51.82825 -0.45063 13803 ft 358 kts 324°
2026-04-25 22:13 51.85562 -0.48188 14934 ft 363 kts 324°
2026-04-25 22:13 51.87635 -0.50548 15758 ft 367 kts 323°
2026-04-25 22:13 51.89704 -0.52905 16552 ft 370 kts 323°
2026-04-25 22:13 51.91851 -0.55350 17342 ft 374 kts 323°
2026-04-25 22:14 51.93982 -0.57779 18096 ft 377 kts 323°
2026-04-25 22:14 51.96136 -0.60238 18815 ft 381 kts 323°
2026-04-25 22:14 51.98302 -0.62717 19496 ft 384 kts 323°
2026-04-25 22:14 52.00495 -0.65230 20147 ft 388 kts 323°
2026-04-25 22:15 52.02704 -0.67762 20761 ft 392 kts 323°
2026-04-25 22:15 52.04937 -0.70322 21374 ft 395 kts 323°
2026-04-25 22:15 52.07184 -0.72901 21966 ft 398 kts 323°
2026-04-25 22:16 52.11728 -0.78128 23062 ft 404 kts 323°
2026-04-25 22:16 52.14023 -0.80773 23576 ft 407 kts 323°
2026-04-25 22:16 52.16342 -0.83449 24070 ft 410 kts 323°
2026-04-25 22:16 52.18701 -0.86175 24551 ft 413 kts 323°
2026-04-25 22:17 52.21050 -0.88893 25023 ft 415 kts 323°
2026-04-25 22:17 52.23406 -0.91623 25474 ft 418 kts 323°
2026-04-25 22:17 52.25773 -0.94369 25917 ft 420 kts 323°
2026-04-25 22:17 52.28152 -0.97133 26339 ft 422 kts 323°
2026-04-25 22:18 52.30545 -0.99918 26761 ft 424 kts 323°
2026-04-25 22:18 52.32950 -1.02721 27170 ft 426 kts 323°
2026-04-25 22:18 52.35364 -1.05536 27578 ft 428 kts 323°
2026-04-25 22:18 52.37786 -1.08367 27973 ft 430 kts 323°
2026-04-25 22:19 52.40216 -1.11211 28370 ft 432 kts 323°
2026-04-25 22:19 52.42663 -1.14080 28749 ft 434 kts 323°
2026-04-25 22:19 52.45113 -1.16954 29129 ft 435 kts 323°
2026-04-25 22:19 52.47581 -1.19855 29499 ft 437 kts 323°
2026-04-25 22:20 52.50052 -1.22764 29856 ft 439 kts 323°
2026-04-25 22:20 52.52568 -1.25729 30210 ft 441 kts 323°
2026-04-25 22:20 52.54122 -1.27565 30424 ft 443 kts 323°
2026-04-25 22:20 52.56622 -1.30519 30783 ft 444 kts 323°
2026-04-25 22:21 52.59131 -1.33488 31163 ft 445 kts 323°
2026-04-25 22:21 52.61636 -1.36457 31557 ft 445 kts 322°
2026-04-25 22:21 52.64142 -1.39431 31947 ft 445 kts 322°
2026-04-25 22:21 52.66649 -1.42410 32341 ft 445 kts 322°
2026-04-25 22:22 52.69153 -1.45391 32728 ft 445 kts 322°
2026-04-25 22:22 52.71651 -1.48370 33108 ft 444 kts 322°
2026-04-25 22:22 52.74150 -1.51354 33484 ft 444 kts 322°
2026-04-25 22:22 52.76648 -1.54343 33840 ft 444 kts 322°
2026-04-25 22:23 52.79140 -1.57326 34191 ft 443 kts 322°
2026-04-25 22:23 52.81633 -1.60314 34535 ft 443 kts 322°
2026-04-25 22:23 52.84157 -1.63345 34863 ft 443 kts 322°
2026-04-25 22:23 52.86646 -1.66340 35174 ft 443 kts 322°
2026-04-25 22:24 52.89134 -1.69335 35478 ft 443 kts 322°
2026-04-25 22:24 52.91627 -1.72342 35775 ft 443 kts 322°
2026-04-25 22:24 52.94117 -1.75350 36062 ft 444 kts 322°
2026-04-25 22:24 52.96605 -1.78360 36339 ft 444 kts 322°
2026-04-25 22:25 52.99098 -1.81381 36611 ft 444 kts 322°
2026-04-25 22:25 53.01590 -1.84403 36879 ft 444 kts 322°
2026-04-25 22:25 53.04080 -1.87429 37143 ft 444 kts 322°
2026-04-25 22:25 53.06574 -1.90463 37401 ft 445 kts 322°
2026-04-25 22:26 53.09059 -1.93494 37649 ft 445 kts 322°
2026-04-25 22:26 53.11631 -1.96340 37914 ft 446 kts 331°
2026-04-25 22:26 53.14516 -1.98399 38174 ft 447 kts 338°
2026-04-25 22:27 53.20415 -2.01773 38267 ft 448 kts 340°
2026-04-25 22:27 53.23202 -2.03987 38270 ft 443 kts 323°
2026-04-25 22:27 53.25394 -2.07521 38278 ft 439 kts 304°
2026-04-25 22:27 53.26825 -2.11984 38286 ft 437 kts 291°
2026-04-25 22:28 53.27929 -2.16712 38285 ft 438 kts 290°
2026-04-25 22:28 53.30105 -2.26191 38288 ft 437 kts 290°
2026-04-25 22:29 53.32284 -2.35664 38287 ft 437 kts 290°
2026-04-25 22:29 53.34469 -2.45147 38285 ft 437 kts 290°
2026-04-25 22:30 53.37759 -2.59442 38278 ft 437 kts 290°
2026-04-25 22:30 53.39568 -2.67317 38272 ft 436 kts 290°
2026-04-25 22:31 53.42106 -2.78410 38271 ft 437 kts 290°
2026-04-25 22:31 53.44272 -2.87908 38285 ft 437 kts 290°
2026-04-25 22:32 53.46435 -2.97424 38290 ft 437 kts 289°
2026-04-25 22:32 53.48593 -3.06956 38304 ft 437 kts 289°
2026-04-25 22:33 53.50757 -3.16551 38312 ft 438 kts 289°
2026-04-25 22:33 53.52901 -3.26103 38312 ft 438 kts 289°
2026-04-25 22:34 53.55042 -3.35677 38301 ft 438 kts 289°
2026-04-25 22:34 53.57175 -3.45256 38294 ft 438 kts 289°
2026-04-25 22:35 53.59305 -3.54872 38284 ft 440 kts 289°
2026-04-25 22:35 53.61213 -3.64612 38276 ft 439 kts 282°
2026-04-25 22:36 53.62105 -3.74734 38274 ft 438 kts 273°
2026-04-25 22:36 53.62495 -3.85012 38271 ft 438 kts 272°
2026-04-25 22:37 53.62884 -3.95230 38269 ft 438 kts 272°
2026-04-25 22:37 53.63268 -4.05445 38267 ft 437 kts 272°
2026-04-25 22:38 53.63650 -4.15644 38257 ft 437 kts 272°
2026-04-25 22:38 53.64028 -4.25850 38252 ft 437 kts 272°
2026-04-25 22:39 53.64402 -4.36050 38249 ft 437 kts 272°
2026-04-25 22:39 53.64769 -4.46328 38245 ft 437 kts 272°
2026-04-25 22:40 53.65125 -4.56510 38243 ft 436 kts 272°
2026-04-25 22:40 53.65479 -4.66687 38242 ft 435 kts 272°
2026-04-25 22:41 53.65831 -4.76859 38243 ft 435 kts 272°
2026-04-25 22:41 53.66174 -4.87016 38243 ft 434 kts 272°
2026-04-25 22:42 53.66443 -4.95505 38244 ft 434 kts 272°
2026-04-25 22:42 53.66763 -5.05654 38243 ft 434 kts 272°
2026-04-25 22:43 53.67081 -5.15800 38243 ft 434 kts 271°
2026-04-25 22:43 53.67372 -5.25944 38243 ft 434 kts 271°
2026-04-25 22:44 53.67660 -5.36092 38242 ft 434 kts 271°
2026-04-25 22:44 53.67948 -5.46246 38241 ft 434 kts 271°
2026-04-25 22:45 53.68812 -5.56387 38241 ft 436 kts 282°
2026-04-25 22:45 53.70330 -5.66173 37919 ft 429 kts 283°
2026-04-25 22:46 53.71085 -5.71024 37428 ft 426 kts 283°
2026-04-25 22:46 53.71830 -5.75840 36904 ft 423 kts 282°
2026-04-25 22:46 53.72565 -5.80628 36376 ft 420 kts 282°
2026-04-25 22:46 53.73290 -5.85377 35845 ft 417 kts 282°
2026-04-25 22:47 53.74005 -5.90093 35318 ft 414 kts 282°
2026-04-25 22:47 53.74710 -5.94777 34809 ft 410 kts 282°
2026-04-25 22:47 53.75405 -5.99419 34279 ft 406 kts 282°
2026-04-25 22:47 53.76090 -6.04014 33738 ft 403 kts 282°
2026-04-25 22:48 53.76766 -6.08580 33223 ft 399 kts 282°
2026-04-25 22:48 53.77434 -6.13116 32684 ft 397 kts 281°
2026-04-25 22:48 53.78103 -6.17679 32176 ft 396 kts 281°
2026-04-25 22:48 53.78761 -6.22190 31724 ft 394 kts 281°
2026-04-25 22:49 53.79412 -6.26671 31225 ft 392 kts 281°
2026-04-25 22:49 53.80057 -6.31115 30688 ft 388 kts 281°
2026-04-25 22:49 53.80694 -6.35526 30126 ft 384 kts 281°
2026-04-25 22:49 53.81323 -6.39897 29551 ft 381 kts 281°
2026-04-25 22:50 53.81943 -6.44233 28954 ft 378 kts 281°
2026-04-25 22:50 53.82557 -6.48537 28345 ft 376 kts 281°
2026-04-25 22:50 53.83165 -6.52811 27747 ft 373 kts 281°
2026-04-25 22:50 53.83767 -6.57061 27141 ft 371 kts 281°
2026-04-25 22:51 53.84363 -6.61280 26558 ft 368 kts 281°
2026-04-25 22:51 53.84955 -6.65477 25997 ft 365 kts 281°
2026-04-25 22:51 53.85542 -6.69649 25416 ft 363 kts 281°
2026-04-25 22:51 53.86130 -6.73841 24827 ft 360 kts 281°
2026-04-25 22:52 53.86704 -6.77952 24261 ft 358 kts 281°
2026-04-25 22:52 53.87275 -6.82043 23688 ft 357 kts 281°
2026-04-25 22:52 53.87841 -6.86111 23159 ft 354 kts 281°
2026-04-25 22:52 53.88212 -6.88780 22816 ft 351 kts 281°
2026-04-25 22:53 53.88955 -6.94138 22092 ft 348 kts 281°
2026-04-25 22:53 53.89503 -6.98105 21557 ft 345 kts 281°
2026-04-25 22:53 53.90047 -7.02048 21035 ft 342 kts 280°
2026-04-25 22:53 53.90583 -7.05962 20503 ft 340 kts 280°
2026-04-25 22:54 53.91115 -7.09847 19990 ft 337 kts 280°
2026-04-25 22:54 53.91641 -7.13706 19469 ft 336 kts 280°
2026-04-25 22:54 53.92164 -7.17537 18994 ft 333 kts 280°
2026-04-25 22:54 53.92684 -7.21363 18504 ft 331 kts 280°
2026-04-25 22:55 53.93197 -7.25154 18013 ft 329 kts 280°
2026-04-25 22:55 53.93713 -7.28975 17528 ft 327 kts 280°
2026-04-25 22:55 53.94219 -7.32731 17047 ft 326 kts 280°
2026-04-25 22:55 53.94720 -7.36467 16558 ft 325 kts 280°
2026-04-25 22:56 53.95220 -7.40201 16066 ft 325 kts 279°
2026-04-25 22:56 53.95719 -7.43941 15580 ft 324 kts 280°
2026-04-25 22:56 53.96216 -7.47668 15091 ft 324 kts 280°
2026-04-25 22:56 53.96711 -7.51380 14594 ft 323 kts 280°
2026-04-25 22:57 53.97208 -7.55130 13969 ft 327 kts 280°
2026-04-25 22:57 53.97707 -7.58889 13463 ft 325 kts 280°
2026-04-25 22:57 53.98201 -7.62616 12964 ft 322 kts 280°
2026-04-25 22:57 53.98688 -7.66310 12461 ft 319 kts 280°
2026-04-25 22:58 53.99162 -7.69965 11961 ft 316 kts 279°
2026-04-25 22:58 53.99522 -7.73618 11477 ft 311 kts 276°
2026-04-25 22:58 53.99849 -7.77277 11002 ft 307 kts 276°
2026-04-25 22:58 54.00169 -7.80735 10773 ft 295 kts 277°
2026-04-25 22:59 54.00496 -7.84176 10341 ft 290 kts 277°
2026-04-25 22:59 54.00820 -7.87538 9855 ft 287 kts 277°
2026-04-25 22:59 54.01097 -7.90852 9452 ft 280 kts 273°
2026-04-25 22:59 54.01121 -7.94101 9143 ft 270 kts 264°
2026-04-25 23:00 54.00856 -7.97297 8980 ft 277 kts 258°
2026-04-25 23:00 54.00505 -8.00515 8722 ft 277 kts 257°
2026-04-25 23:00 54.00145 -8.03714 8452 ft 275 kts 257°
2026-04-25 23:00 53.99782 -8.06893 8183 ft 274 kts 257°
2026-04-25 23:01 53.99415 -8.10066 7917 ft 273 kts 257°
2026-04-25 23:01 53.99050 -8.13222 7650 ft 272 kts 257°
2026-04-25 23:01 53.98686 -8.16360 7386 ft 272 kts 257°
2026-04-25 23:01 53.98316 -8.19534 7144 ft 268 kts 257°
2026-04-25 23:02 53.97950 -8.22650 6816 ft 269 kts 257°
2026-04-25 23:02 53.97591 -8.25745 6492 ft 267 kts 257°
2026-04-25 23:02 53.97234 -8.28827 6159 ft 264 kts 257°
2026-04-25 23:02 53.96882 -8.31873 5887 ft 265 kts 257°
2026-04-25 23:03 53.96525 -8.34935 5547 ft 263 kts 257°
2026-04-25 23:03 53.96180 -8.37903 5401 ft 247 kts 257°
2026-04-25 23:03 53.95860 -8.40653 5323 ft 229 kts 257°
2026-04-25 23:03 53.95556 -8.43263 4906 ft 227 kts 257°
2026-04-25 23:04 53.95252 -8.45864 4690 ft 217 kts 257°
2026-04-25 23:04 53.95062 -8.47502 4597 ft 205 kts 257°
2026-04-25 23:04 53.94706 -8.50558 4123 ft 197 kts 257°
2026-04-25 23:04 53.94440 -8.52831 3849 ft 190 kts 257°
2026-04-25 23:05 53.94193 -8.54943 3614 ft 181 kts 257°
2026-04-25 23:05 53.93951 -8.57005 3368 ft 172 kts 257°
2026-04-25 23:05 53.93723 -8.58945 3143 ft 165 kts 257°
2026-04-25 23:05 53.93499 -8.60844 2927 ft 164 kts 257°
2026-04-25 23:06 53.93278 -8.62727 2713 ft 162 kts 257°
2026-04-25 23:06 53.93063 -8.64561 2496 ft 151 kts 257°
2026-04-25 23:06 53.92869 -8.66214 2283 ft 139 kts 257°
2026-04-25 23:06 53.92681 -8.67808 2112 ft 137 kts 258°
2026-04-25 23:07 53.92496 -8.69381 1940 ft 134 kts 258°
2026-04-25 23:07 53.92313 -8.70921 1771 ft 134 kts 258°
2026-04-25 23:07 53.92134 -8.72457 1598 ft 132 kts 258°
2026-04-25 23:07 53.91954 -8.73992 1425 ft 133 kts 259°
2026-04-25 23:08 53.91774 -8.75523 1241 ft 132 kts 258°
2026-04-25 23:08 53.91595 -8.77048 1066 ft 132 kts 259°
2026-04-25 23:08 53.91415 -8.78594 885 ft 132 kts 259°
2026-04-25 23:08 53.91236 -8.80106 718 ft 131 kts 258°
2026-04-25 23:09 53.91076 -8.81486 680 ft 98 kts 259°
2026-04-25 23:09 53.90958 -8.82469 680 ft 74 kts 258°
2026-04-25 23:09 53.90879 -8.83133 680 ft 47 kts 258°
2026-04-25 23:09 53.90819 -8.83510 680 ft 23 kts 237°
2026-04-25 23:10 53.90796 -8.83655 680 ft 11 kts 340°
2026-04-25 23:10 53.90835 -8.83508 680 ft 21 kts 82°
2026-04-25 23:10 53.90871 -8.83194 680 ft 32 kts 79°
2026-04-25 23:10 53.90913 -8.82823 680 ft 33 kts 79°
2026-04-25 23:11 53.90958 -8.82447 680 ft 33 kts 78°
2026-04-25 23:11 53.91003 -8.82071 680 ft 33 kts 79°
2026-04-25 23:11 53.91047 -8.81694 680 ft 33 kts 78°
2026-04-25 23:11 53.91092 -8.81319 680 ft 32 kts 78°
2026-04-25 23:12 53.91130 -8.80999 680 ft 20 kts 78°
2026-04-25 23:12 53.91187 -8.80873 680 ft 13 kts 354°
2026-04-25 23:12 53.91277 -8.80902 680 ft 12 kts 349°
2026-04-25 23:12 53.91351 -8.80927 680 ft 9 kts 348°
2026-04-25 23:13 53.91363 -8.80988 680 ft 5 kts 257°
2026-04-25 23:13 53.91359 -8.81020 680 ft 0 kts 257°